Year,Month,Day,Hour,Minute,Value (Times are PST for temperature in C)
2015,02,18,00,00,5.80
2015,02,18,00,01,5.80
2015,02,18,00,02,5.80
2015,02,18,00,03,5.80
2015,02,18,00,04,5.80
2015,02,18,00,05,5.70
2015,02,18,00,06,5.70
2015,02,18,00,07,5.70
2015,02,18,00,08,5.60
2015,02,18,00,09,5.60
2015,02,18,00,10,5.60
2015,02,18,00,11,5.60
2015,02,18,00,12,5.60
2015,02,18,00,13,5.60
2015,02,18,00,14,5.60
2015,02,18,00,15,5.60
2015,02,18,00,16,5.60
2015,02,18,00,17,5.60
2015,02,18,00,18,5.60
2015,02,18,00,19,5.60
2015,02,18,00,20,5.60
2015,02,18,00,21,5.60
2015,02,18,00,22,5.60
2015,02,18,00,23,5.60
2015,02,18,00,24,5.60
2015,02,18,00,25,5.60
2015,02,18,00,26,5.60
2015,02,18,00,27,5.60
2015,02,18,00,28,5.60
2015,02,18,00,29,5.60
2015,02,18,00,30,5.60
2015,02,18,00,31,5.60
2015,02,18,00,32,5.60
2015,02,18,00,33,5.60
2015,02,18,00,34,5.60
2015,02,18,00,35,5.60
2015,02,18,00,36,5.60
2015,02,18,00,37,5.50
2015,02,18,00,38,5.50
2015,02,18,00,39,5.50
2015,02,18,00,40,5.50
2015,02,18,00,41,5.50
2015,02,18,00,42,5.50
2015,02,18,00,43,5.50
2015,02,18,00,44,5.50
2015,02,18,00,45,5.50
2015,02,18,00,46,5.40
2015,02,18,00,47,5.40
2015,02,18,00,48,5.40
2015,02,18,00,49,5.40
2015,02,18,00,50,5.40
2015,02,18,00,51,5.40
2015,02,18,00,52,5.40
2015,02,18,00,53,5.40
2015,02,18,00,54,5.30
2015,02,18,00,55,5.30
2015,02,18,00,56,5.40
2015,02,18,00,57,5.40
2015,02,18,00,58,5.40
2015,02,18,00,59,5.40
2015,02,18,01,00,5.50
2015,02,18,01,01,5.50
2015,02,18,01,02,5.50
2015,02,18,01,03,5.60
2015,02,18,01,04,5.60
2015,02,18,01,05,5.60
2015,02,18,01,06,5.60
2015,02,18,01,07,5.70
2015,02,18,01,08,5.70
2015,02,18,01,09,5.70
2015,02,18,01,10,5.70
2015,02,18,01,11,5.60
2015,02,18,01,12,5.60
2015,02,18,01,13,5.60
2015,02,18,01,14,5.60
2015,02,18,01,15,5.50
2015,02,18,01,16,5.50
2015,02,18,01,17,5.40
2015,02,18,01,18,5.40
2015,02,18,01,19,5.40
2015,02,18,01,20,5.40
2015,02,18,01,21,5.40
2015,02,18,01,22,5.40
2015,02,18,01,23,5.40
2015,02,18,01,24,5.30
2015,02,18,01,25,5.30
2015,02,18,01,26,5.30
2015,02,18,01,27,5.30
2015,02,18,01,28,5.30
2015,02,18,01,29,5.30
2015,02,18,01,30,5.30
2015,02,18,01,31,5.30
2015,02,18,01,32,5.30
2015,02,18,01,33,5.30
2015,02,18,01,34,5.30
2015,02,18,01,35,5.30
2015,02,18,01,36,5.30
2015,02,18,01,37,5.20
2015,02,18,01,38,5.20
2015,02,18,01,39,5.20
2015,02,18,01,40,5.20
2015,02,18,01,41,5.30
2015,02,18,01,42,5.30
2015,02,18,01,43,5.30
2015,02,18,01,44,5.30
2015,02,18,01,45,5.30
2015,02,18,01,46,5.30
2015,02,18,01,47,5.30
2015,02,18,01,48,5.20
2015,02,18,01,49,5.20
2015,02,18,01,50,5.20
2015,02,18,01,51,5.20
2015,02,18,01,52,5.20
2015,02,18,01,53,5.20
2015,02,18,01,54,5.20
2015,02,18,01,55,5.20
2015,02,18,01,56,5.20
2015,02,18,01,57,5.20
2015,02,18,01,58,5.20
2015,02,18,01,59,5.20
2015,02,18,02,00,5.20
2015,02,18,02,01,5.20
2015,02,18,02,02,5.20
2015,02,18,02,03,5.30
2015,02,18,02,04,5.20
2015,02,18,02,05,5.30
2015,02,18,02,06,5.30
2015,02,18,02,07,5.30
2015,02,18,02,08,5.30
2015,02,18,02,09,5.40
2015,02,18,02,10,5.40
2015,02,18,02,11,5.50
2015,02,18,02,12,5.60
2015,02,18,02,13,5.70
2015,02,18,02,14,5.70
2015,02,18,02,15,5.70
2015,02,18,02,16,5.80
2015,02,18,02,17,5.90
2015,02,18,02,18,6.00
2015,02,18,02,19,6.10
2015,02,18,02,20,6.10
2015,02,18,02,21,6.20
2015,02,18,02,22,6.20
2015,02,18,02,23,6.20
2015,02,18,02,24,6.30
2015,02,18,02,25,6.40
2015,02,18,02,26,6.50
2015,02,18,02,27,6.60
2015,02,18,02,28,6.70
2015,02,18,02,29,6.80
2015,02,18,02,30,6.80
2015,02,18,02,31,6.80
2015,02,18,02,32,6.80
2015,02,18,02,33,6.80
2015,02,18,02,34,6.80
2015,02,18,02,35,6.80
2015,02,18,02,36,6.80
2015,02,18,02,37,6.90
2015,02,18,02,38,7.00
2015,02,18,02,39,7.20
2015,02,18,02,40,7.20
2015,02,18,02,41,7.30
2015,02,18,02,42,7.40
2015,02,18,02,43,7.40
2015,02,18,02,44,7.50
2015,02,18,02,45,7.50
2015,02,18,02,46,7.40
2015,02,18,02,47,7.40
2015,02,18,02,48,7.40
2015,02,18,02,49,7.40
2015,02,18,02,50,7.40
2015,02,18,02,51,7.40
2015,02,18,02,52,7.40
2015,02,18,02,53,7.40
2015,02,18,02,54,7.40
2015,02,18,02,55,7.40
2015,02,18,02,56,7.40
2015,02,18,02,57,7.40
2015,02,18,02,58,7.40
2015,02,18,02,59,7.40
2015,02,18,03,00,7.40
2015,02,18,03,01,7.40
2015,02,18,03,02,7.40
2015,02,18,03,03,7.40
2015,02,18,03,04,7.40
2015,02,18,03,05,7.30
2015,02,18,03,06,7.30
2015,02,18,03,07,7.30
2015,02,18,03,08,7.30
2015,02,18,03,09,7.30
2015,02,18,03,10,7.30
2015,02,18,03,11,7.30
2015,02,18,03,12,7.40
2015,02,18,03,13,7.50
2015,02,18,03,14,7.50
2015,02,18,03,15,7.60
2015,02,18,03,16,7.70
2015,02,18,03,17,7.70
2015,02,18,03,18,7.70
2015,02,18,03,19,7.80
2015,02,18,03,20,7.80
2015,02,18,03,21,7.90
2015,02,18,03,22,8.00
2015,02,18,03,23,8.10
2015,02,18,03,24,8.10
2015,02,18,03,25,8.20
2015,02,18,03,26,8.30
2015,02,18,03,27,8.30
2015,02,18,03,28,8.40
2015,02,18,03,29,8.40
2015,02,18,03,30,8.40
2015,02,18,03,31,8.40
2015,02,18,03,32,8.40
2015,02,18,03,33,8.40
2015,02,18,03,34,8.40
2015,02,18,03,35,8.40
2015,02,18,03,36,8.40
2015,02,18,03,37,8.50
2015,02,18,03,38,8.50
2015,02,18,03,39,8.50
2015,02,18,03,40,8.50
2015,02,18,03,41,8.50
2015,02,18,03,42,8.50
2015,02,18,03,43,8.50
2015,02,18,03,44,8.60
2015,02,18,03,45,8.60
2015,02,18,03,46,8.60
2015,02,18,03,47,8.60
2015,02,18,03,48,8.60
2015,02,18,03,49,8.70
2015,02,18,03,50,8.70
2015,02,18,03,51,8.70
2015,02,18,03,52,8.70
2015,02,18,03,53,8.60
2015,02,18,03,54,8.60
2015,02,18,03,55,8.60
2015,02,18,03,56,8.60
2015,02,18,03,57,8.60
2015,02,18,03,58,8.60
2015,02,18,03,59,8.70
2015,02,18,04,00,8.70
2015,02,18,04,01,8.70
2015,02,18,04,02,8.70
2015,02,18,04,03,8.60
2015,02,18,04,04,8.70
2015,02,18,04,05,8.70
2015,02,18,04,06,8.70
2015,02,18,04,07,8.70
2015,02,18,04,08,8.70
2015,02,18,04,09,8.70
2015,02,18,04,10,8.70
2015,02,18,04,11,8.70
2015,02,18,04,12,8.70
2015,02,18,04,13,8.60
2015,02,18,04,14,8.70
2015,02,18,04,15,8.60
2015,02,18,04,16,8.60
2015,02,18,04,17,8.60
2015,02,18,04,18,8.60
2015,02,18,04,19,8.70
2015,02,18,04,20,8.70
2015,02,18,04,21,8.70
2015,02,18,04,22,8.70
2015,02,18,04,23,8.70
2015,02,18,04,24,8.70
2015,02,18,04,25,8.70
2015,02,18,04,26,8.70
2015,02,18,04,27,8.70
2015,02,18,04,28,8.70
2015,02,18,04,29,8.70
2015,02,18,04,30,8.70
2015,02,18,04,31,8.70
2015,02,18,04,32,8.60
2015,02,18,04,33,8.60
2015,02,18,04,34,8.60
2015,02,18,04,35,8.60
2015,02,18,04,36,8.60
2015,02,18,04,37,8.60
2015,02,18,04,38,8.60
2015,02,18,04,39,8.60
2015,02,18,04,40,8.60
2015,02,18,04,41,8.60
2015,02,18,04,42,8.50
2015,02,18,04,43,8.50
2015,02,18,04,44,8.50
2015,02,18,04,45,8.50
2015,02,18,04,46,8.50
2015,02,18,04,47,8.50
2015,02,18,04,48,8.50
2015,02,18,04,49,8.50
2015,02,18,04,50,8.60
2015,02,18,04,51,8.60
2015,02,18,04,52,8.70
2015,02,18,04,53,8.70
2015,02,18,04,54,8.70
2015,02,18,04,55,8.70
2015,02,18,04,56,8.80
2015,02,18,04,57,8.80
2015,02,18,04,58,8.80
2015,02,18,04,59,8.80
2015,02,18,05,00,8.80
2015,02,18,05,01,8.80
2015,02,18,05,02,8.80
2015,02,18,05,03,8.80
2015,02,18,05,04,8.80
2015,02,18,05,05,8.80
2015,02,18,05,06,8.80
2015,02,18,05,07,8.80
2015,02,18,05,08,8.80
2015,02,18,05,09,8.80
2015,02,18,05,10,8.80
2015,02,18,05,11,8.80
2015,02,18,05,12,8.80
2015,02,18,05,13,8.80
2015,02,18,05,14,8.80
2015,02,18,05,15,8.80
2015,02,18,05,16,8.70
2015,02,18,05,17,8.70
2015,02,18,05,18,8.70
2015,02,18,05,19,8.70
2015,02,18,05,20,8.70
2015,02,18,05,21,8.70
2015,02,18,05,22,8.80
2015,02,18,05,23,8.70
2015,02,18,05,24,8.70
2015,02,18,05,25,8.70
2015,02,18,05,26,8.70
2015,02,18,05,27,8.80
2015,02,18,05,28,8.80
2015,02,18,05,29,8.80
2015,02,18,05,30,8.80
2015,02,18,05,31,8.80
2015,02,18,05,32,8.80
2015,02,18,05,33,8.80
2015,02,18,05,34,8.80
2015,02,18,05,35,8.80
2015,02,18,05,36,8.80
2015,02,18,05,37,8.80
2015,02,18,05,38,8.80
2015,02,18,05,39,8.80
2015,02,18,05,40,8.80
2015,02,18,05,41,8.80
2015,02,18,05,42,8.90
2015,02,18,05,43,8.90
2015,02,18,05,44,8.90
2015,02,18,05,45,8.90
2015,02,18,05,46,8.90
2015,02,18,05,47,8.90
2015,02,18,05,48,8.90
2015,02,18,05,49,8.90
2015,02,18,05,50,8.90
2015,02,18,05,51,8.90
2015,02,18,05,52,8.90
2015,02,18,05,53,8.90
2015,02,18,05,54,9.00
2015,02,18,05,55,9.00
2015,02,18,05,56,9.00
2015,02,18,05,57,9.10
2015,02,18,05,58,9.10
2015,02,18,05,59,9.10
2015,02,18,06,00,9.20
2015,02,18,06,01,9.20
2015,02,18,06,02,9.20
2015,02,18,06,03,9.20
2015,02,18,06,04,9.20
2015,02,18,06,05,9.20
2015,02,18,06,06,9.20
2015,02,18,06,07,9.20
2015,02,18,06,08,9.20
2015,02,18,06,09,9.30
2015,02,18,06,10,9.30
2015,02,18,06,11,9.30
2015,02,18,06,12,9.30
2015,02,18,06,13,9.30
2015,02,18,06,14,9.40
2015,02,18,06,15,9.40
2015,02,18,06,16,9.40
2015,02,18,06,17,9.50
2015,02,18,06,18,9.50
2015,02,18,06,19,9.50
2015,02,18,06,20,9.60
2015,02,18,06,21,9.60
2015,02,18,06,22,9.60
2015,02,18,06,23,9.60
2015,02,18,06,24,9.60
2015,02,18,06,25,9.70
2015,02,18,06,26,9.70
2015,02,18,06,27,9.70
2015,02,18,06,28,9.70
2015,02,18,06,29,9.70
2015,02,18,06,30,9.70
2015,02,18,06,31,9.70
2015,02,18,06,32,9.70
2015,02,18,06,33,9.60
2015,02,18,06,34,9.60
2015,02,18,06,35,9.60
2015,02,18,06,36,9.50
2015,02,18,06,37,9.50
2015,02,18,06,38,9.50
2015,02,18,06,39,9.40
2015,02,18,06,40,9.40
2015,02,18,06,41,9.40
2015,02,18,06,42,9.40
2015,02,18,06,43,9.50
2015,02,18,06,44,9.50
2015,02,18,06,45,9.50
2015,02,18,06,46,9.50
2015,02,18,06,47,9.50
2015,02,18,06,48,9.50
2015,02,18,06,49,9.50
2015,02,18,06,50,9.50
2015,02,18,06,51,9.50
2015,02,18,06,52,9.50
2015,02,18,06,53,9.50
2015,02,18,06,54,9.50
2015,02,18,06,55,9.50
2015,02,18,06,56,9.50
2015,02,18,06,57,9.50
2015,02,18,06,58,9.50
2015,02,18,06,59,9.50
2015,02,18,07,00,9.50
2015,02,18,07,01,9.50
2015,02,18,07,02,9.50
2015,02,18,07,03,9.50
2015,02,18,07,04,9.50
2015,02,18,07,05,9.50
2015,02,18,07,06,9.40
2015,02,18,07,07,9.40
2015,02,18,07,08,9.40
2015,02,18,07,09,9.40
2015,02,18,07,10,9.40
2015,02,18,07,11,9.40
2015,02,18,07,12,9.40
2015,02,18,07,13,9.40
2015,02,18,07,14,9.30
2015,02,18,07,15,9.30
2015,02,18,07,16,9.30
2015,02,18,07,17,9.30
2015,02,18,07,18,9.30
2015,02,18,07,19,9.30
2015,02,18,07,20,9.30
2015,02,18,07,21,9.30
2015,02,18,07,22,9.20
2015,02,18,07,23,9.20
2015,02,18,07,24,9.20
2015,02,18,07,25,9.20
2015,02,18,07,26,9.20
2015,02,18,07,27,9.20
2015,02,18,07,28,9.10
2015,02,18,07,29,9.10
2015,02,18,07,30,9.10
2015,02,18,07,31,9.10
2015,02,18,07,32,9.10
2015,02,18,07,33,9.00
2015,02,18,07,34,9.00
2015,02,18,07,35,9.00
2015,02,18,07,36,9.00
2015,02,18,07,37,8.90
2015,02,18,07,38,8.90
2015,02,18,07,39,8.90
2015,02,18,07,40,8.90
2015,02,18,07,41,8.80
2015,02,18,07,42,8.80
2015,02,18,07,43,8.80
2015,02,18,07,44,8.80
2015,02,18,07,45,8.80
2015,02,18,07,46,8.70
2015,02,18,07,47,8.70
2015,02,18,07,48,8.70
2015,02,18,07,49,8.70
2015,02,18,07,50,8.70
2015,02,18,07,51,8.70
2015,02,18,07,52,8.60
2015,02,18,07,53,8.60
2015,02,18,07,54,8.60
2015,02,18,07,55,8.60
2015,02,18,07,56,8.50
2015,02,18,07,57,8.50
2015,02,18,07,58,8.40
2015,02,18,07,59,8.40
2015,02,18,08,00,8.40
2015,02,18,08,01,8.40
2015,02,18,08,02,8.30
2015,02,18,08,03,8.30
2015,02,18,08,04,8.30
2015,02,18,08,05,8.30
2015,02,18,08,06,8.30
2015,02,18,08,07,8.30
2015,02,18,08,08,8.30
2015,02,18,08,09,8.30
2015,02,18,08,10,8.30
2015,02,18,08,11,8.30
2015,02,18,08,12,8.30
2015,02,18,08,13,8.30
2015,02,18,08,14,8.30
2015,02,18,08,15,8.30
2015,02,18,08,16,8.30
2015,02,18,08,17,8.30
2015,02,18,08,18,8.30
2015,02,18,08,19,8.30
2015,02,18,08,20,8.30
2015,02,18,08,21,8.30
2015,02,18,08,22,8.30
2015,02,18,08,23,8.30
2015,02,18,08,24,8.30
2015,02,18,08,25,8.30
2015,02,18,08,26,8.30
2015,02,18,08,27,8.30
2015,02,18,08,28,8.30
2015,02,18,08,29,8.30
2015,02,18,08,30,8.30
2015,02,18,08,31,8.30
2015,02,18,08,32,8.30
2015,02,18,08,33,8.30
2015,02,18,08,34,8.30
2015,02,18,08,35,8.30
2015,02,18,08,36,8.30
2015,02,18,08,37,8.30
2015,02,18,08,38,8.30
2015,02,18,08,39,8.30
2015,02,18,08,40,8.30
2015,02,18,08,41,8.30
2015,02,18,08,42,8.30
2015,02,18,08,43,8.30
2015,02,18,08,44,8.30
2015,02,18,08,45,8.30
2015,02,18,08,46,8.30
2015,02,18,08,47,8.30
2015,02,18,08,48,8.30
2015,02,18,08,49,8.30
2015,02,18,08,50,8.30
2015,02,18,08,51,8.30
2015,02,18,08,52,8.30
2015,02,18,08,53,8.30
2015,02,18,08,54,8.30
2015,02,18,08,55,8.30
2015,02,18,08,56,8.30
2015,02,18,08,57,8.30
2015,02,18,08,58,8.30
2015,02,18,08,59,8.30
2015,02,18,09,00,8.30
2015,02,18,09,01,8.30
2015,02,18,09,02,8.30
2015,02,18,09,03,8.30
2015,02,18,09,04,8.30
2015,02,18,09,05,8.30
2015,02,18,09,06,8.30
2015,02,18,09,07,8.30
2015,02,18,09,08,8.30
2015,02,18,09,09,8.30
2015,02,18,09,10,8.30
2015,02,18,09,11,8.40
2015,02,18,09,12,8.40
2015,02,18,09,13,8.40
2015,02,18,09,14,8.40
2015,02,18,09,15,8.40
2015,02,18,09,16,8.40
2015,02,18,09,17,8.40
2015,02,18,09,18,8.40
2015,02,18,09,19,8.40
2015,02,18,09,20,8.40
2015,02,18,09,21,8.40
2015,02,18,09,22,8.40
2015,02,18,09,23,8.50
2015,02,18,09,24,8.50
2015,02,18,09,25,8.50
2015,02,18,09,26,8.50
2015,02,18,09,27,8.50
2015,02,18,09,28,8.60
2015,02,18,09,29,8.60
2015,02,18,09,30,8.60
2015,02,18,09,31,8.60
2015,02,18,09,32,8.60
2015,02,18,09,33,8.60
2015,02,18,09,34,8.60
2015,02,18,09,35,8.70
2015,02,18,09,36,8.70
2015,02,18,09,37,8.70
2015,02,18,09,38,8.70
2015,02,18,09,39,8.70
2015,02,18,09,40,8.70
2015,02,18,09,41,8.70
2015,02,18,09,42,8.80
2015,02,18,09,43,8.80
2015,02,18,09,44,8.80
2015,02,18,09,45,8.80
2015,02,18,09,46,8.90
2015,02,18,09,47,8.90
2015,02,18,09,48,8.90
2015,02,18,09,49,8.90
2015,02,18,09,50,8.90
2015,02,18,09,51,9.00
2015,02,18,09,52,9.00
2015,02,18,09,53,9.10
2015,02,18,09,54,9.10
2015,02,18,09,55,9.10
2015,02,18,09,56,9.20
2015,02,18,09,57,9.20
2015,02,18,09,58,9.20
2015,02,18,09,59,9.20
2015,02,18,10,00,9.20
2015,02,18,10,01,9.20
2015,02,18,10,02,9.20
2015,02,18,10,03,9.20
2015,02,18,10,04,9.20
2015,02,18,10,05,9.10
2015,02,18,10,06,9.20
2015,02,18,10,07,9.20
2015,02,18,10,08,9.20
2015,02,18,10,09,9.20
2015,02,18,10,10,9.20
2015,02,18,10,11,9.20
2015,02,18,10,12,9.20
2015,02,18,10,13,9.20
2015,02,18,10,14,9.20
2015,02,18,10,15,9.20
2015,02,18,10,16,9.30
2015,02,18,10,17,9.30
2015,02,18,10,18,9.30
2015,02,18,10,19,9.30
2015,02,18,10,20,9.30
2015,02,18,10,21,9.30
2015,02,18,10,22,9.30
2015,02,18,10,23,9.30
2015,02,18,10,24,9.40
2015,02,18,10,25,9.40
2015,02,18,10,26,9.40
2015,02,18,10,27,9.50
2015,02,18,10,28,9.50
2015,02,18,10,29,9.60
2015,02,18,10,30,9.60
2015,02,18,10,31,9.60
2015,02,18,10,32,9.60
2015,02,18,10,33,9.60
2015,02,18,10,34,9.60
2015,02,18,10,35,9.60
2015,02,18,10,36,9.70
2015,02,18,10,37,9.70
2015,02,18,10,38,9.70
2015,02,18,10,39,9.70
2015,02,18,10,40,9.70
2015,02,18,10,41,9.80
2015,02,18,10,42,9.80
2015,02,18,10,43,9.90
2015,02,18,10,44,9.90
2015,02,18,10,45,9.90
2015,02,18,10,46,10.00
2015,02,18,10,47,10.00
2015,02,18,10,48,10.10
2015,02,18,10,49,10.10
2015,02,18,10,50,10.10
2015,02,18,10,51,10.10
2015,02,18,10,52,10.20
2015,02,18,10,53,10.20
2015,02,18,10,54,10.20
2015,02,18,10,55,10.20
2015,02,18,10,56,10.20
2015,02,18,10,57,10.20
2015,02,18,10,58,10.30
2015,02,18,10,59,10.30
2015,02,18,11,00,10.30
2015,02,18,11,01,10.30
2015,02,18,11,02,10.30
2015,02,18,11,03,10.40
2015,02,18,11,04,10.40
2015,02,18,11,05,10.40
2015,02,18,11,06,10.40
2015,02,18,11,07,10.40
2015,02,18,11,08,10.50
2015,02,18,11,09,10.50
2015,02,18,11,10,10.50
2015,02,18,11,11,10.60
2015,02,18,11,12,10.60
2015,02,18,11,13,10.60
2015,02,18,11,14,10.60
2015,02,18,11,15,10.60
2015,02,18,11,16,10.60
2015,02,18,11,17,10.70
2015,02,18,11,18,10.70
2015,02,18,11,19,10.70
2015,02,18,11,20,10.70
2015,02,18,11,21,10.80
2015,02,18,11,22,10.80
2015,02,18,11,23,10.80
2015,02,18,11,24,10.80
2015,02,18,11,25,10.80
2015,02,18,11,26,10.80
2015,02,18,11,27,10.80
2015,02,18,11,28,10.80
2015,02,18,11,29,10.80
2015,02,18,11,30,10.90
2015,02,18,11,31,10.90
2015,02,18,11,32,10.90
2015,02,18,11,33,11.00
2015,02,18,11,34,11.00
2015,02,18,11,35,11.00
2015,02,18,11,36,11.00
2015,02,18,11,37,11.00
2015,02,18,11,38,11.00
2015,02,18,11,39,11.00
2015,02,18,11,40,11.00
2015,02,18,11,41,11.10
2015,02,18,11,42,11.10
2015,02,18,11,43,11.10
2015,02,18,11,44,11.10
2015,02,18,11,45,11.10
2015,02,18,11,46,11.10
2015,02,18,11,47,11.20
2015,02,18,11,48,11.10
2015,02,18,11,49,11.10
2015,02,18,11,50,11.10
2015,02,18,11,51,11.10
2015,02,18,11,52,11.20
2015,02,18,11,53,11.20
2015,02,18,11,54,11.30
2015,02,18,11,55,11.30
2015,02,18,11,56,11.40
2015,02,18,11,57,11.50
2015,02,18,11,58,11.50
2015,02,18,11,59,11.50
2015,02,18,12,00,11.60
2015,02,18,12,01,11.60
2015,02,18,12,02,11.70
2015,02,18,12,03,11.70
2015,02,18,12,04,11.70
2015,02,18,12,05,11.60
2015,02,18,12,06,11.60
2015,02,18,12,07,11.60
2015,02,18,12,08,11.60
2015,02,18,12,09,11.60
2015,02,18,12,10,11.60
2015,02,18,12,11,11.60
2015,02,18,12,12,11.70
2015,02,18,12,13,11.70
2015,02,18,12,14,11.70
2015,02,18,12,15,11.70
2015,02,18,12,16,11.70
2015,02,18,12,17,11.80
2015,02,18,12,18,11.80
2015,02,18,12,19,11.80
2015,02,18,12,20,11.90
2015,02,18,12,21,11.80
2015,02,18,12,22,11.90
2015,02,18,12,23,11.90
2015,02,18,12,24,11.90
2015,02,18,12,25,11.90
2015,02,18,12,26,11.90
2015,02,18,12,27,11.90
2015,02,18,12,28,12.00
2015,02,18,12,29,12.10
2015,02,18,12,30,12.20
2015,02,18,12,31,12.30
2015,02,18,12,32,12.30
2015,02,18,12,33,12.20
2015,02,18,12,34,12.30
2015,02,18,12,35,12.30
2015,02,18,12,36,12.30
2015,02,18,12,37,12.30
2015,02,18,12,38,12.30
2015,02,18,12,39,12.30
2015,02,18,12,40,12.30
2015,02,18,12,41,12.30
2015,02,18,12,42,12.30
2015,02,18,12,43,12.20
2015,02,18,12,44,12.20
2015,02,18,12,45,12.10
2015,02,18,12,46,12.00
2015,02,18,12,47,12.00
2015,02,18,12,48,12.00
2015,02,18,12,49,11.90
2015,02,18,12,50,11.90
2015,02,18,12,51,11.90
2015,02,18,12,52,11.90
2015,02,18,12,53,11.90
2015,02,18,12,54,11.80
2015,02,18,12,55,11.80
2015,02,18,12,56,11.80
2015,02,18,12,57,11.80
2015,02,18,12,58,11.80
2015,02,18,12,59,11.80
2015,02,18,13,00,11.80
2015,02,18,13,01,11.90
2015,02,18,13,02,11.90
2015,02,18,13,03,11.90
2015,02,18,13,04,11.90
2015,02,18,13,05,11.90
2015,02,18,13,06,11.90
2015,02,18,13,07,11.90
2015,02,18,13,08,11.90
2015,02,18,13,09,11.90
2015,02,18,13,10,11.90
2015,02,18,13,11,11.90
2015,02,18,13,12,11.90
2015,02,18,13,13,12.00
2015,02,18,13,14,12.00
2015,02,18,13,15,12.10
2015,02,18,13,16,12.10
2015,02,18,13,17,12.10
2015,02,18,13,18,12.10
2015,02,18,13,19,12.10
2015,02,18,13,20,12.20
2015,02,18,13,21,12.20
2015,02,18,13,22,12.20
2015,02,18,13,23,12.20
2015,02,18,13,24,12.20
2015,02,18,13,25,12.20
2015,02,18,13,26,12.20
2015,02,18,13,27,12.20
2015,02,18,13,28,12.20
2015,02,18,13,29,12.30
2015,02,18,13,30,12.30
2015,02,18,13,31,12.30
2015,02,18,13,32,12.30
2015,02,18,13,33,12.30
2015,02,18,13,34,12.30
2015,02,18,13,35,12.40
2015,02,18,13,36,12.40
2015,02,18,13,37,12.40
2015,02,18,13,38,12.40
2015,02,18,13,39,12.40
2015,02,18,13,40,12.50
2015,02,18,13,41,12.50
2015,02,18,13,42,12.60
2015,02,18,13,43,12.60
2015,02,18,13,44,12.50
2015,02,18,13,45,12.50
2015,02,18,13,46,12.50
2015,02,18,13,47,12.50
2015,02,18,13,48,12.50
2015,02,18,13,49,12.50
2015,02,18,13,50,12.50
2015,02,18,13,51,12.50
2015,02,18,13,52,12.50
2015,02,18,13,53,12.50
2015,02,18,13,54,12.50
2015,02,18,13,55,12.40
2015,02,18,13,56,12.40
2015,02,18,13,57,12.40
2015,02,18,13,58,12.30
2015,02,18,13,59,12.30
2015,02,18,14,00,12.30
2015,02,18,14,01,12.30
2015,02,18,14,02,12.20
2015,02,18,14,03,12.20
2015,02,18,14,04,12.20
2015,02,18,14,05,12.20
2015,02,18,14,06,12.20
2015,02,18,14,07,12.20
2015,02,18,14,08,12.20
2015,02,18,14,09,12.20
2015,02,18,14,10,12.20
2015,02,18,14,11,12.20
2015,02,18,14,12,12.20
2015,02,18,14,13,12.20
2015,02,18,14,14,12.20
2015,02,18,14,15,12.20
2015,02,18,14,16,12.20
2015,02,18,14,17,12.20
2015,02,18,14,18,12.20
2015,02,18,14,19,12.20
2015,02,18,14,20,12.20
2015,02,18,14,21,12.20
2015,02,18,14,22,12.20
2015,02,18,14,23,12.20
2015,02,18,14,24,12.20
2015,02,18,14,25,12.10
2015,02,18,14,26,12.10
2015,02,18,14,27,12.10
2015,02,18,14,28,12.10
2015,02,18,14,29,12.10
2015,02,18,14,30,12.10
2015,02,18,14,31,12.10
2015,02,18,14,32,12.10
2015,02,18,14,33,12.10
2015,02,18,14,34,12.20
2015,02,18,14,35,12.20
2015,02,18,14,36,12.20
2015,02,18,14,37,12.20
2015,02,18,14,38,12.20
2015,02,18,14,39,12.10
2015,02,18,14,40,12.10
2015,02,18,14,41,12.10
2015,02,18,14,42,12.00
2015,02,18,14,43,12.00
2015,02,18,14,44,12.00
2015,02,18,14,45,12.00
2015,02,18,14,46,11.90
2015,02,18,14,47,11.90
2015,02,18,14,48,11.90
2015,02,18,14,49,11.90
2015,02,18,14,50,11.80
2015,02,18,14,51,11.80
2015,02,18,14,52,11.80
2015,02,18,14,53,11.80
2015,02,18,14,54,11.80
2015,02,18,14,55,11.70
2015,02,18,14,56,11.70
2015,02,18,14,57,11.70
2015,02,18,14,58,11.70
2015,02,18,14,59,11.70
2015,02,18,15,00,11.70
2015,02,18,15,01,11.70
2015,02,18,15,02,11.70
2015,02,18,15,03,11.70
2015,02,18,15,04,11.70
2015,02,18,15,05,11.70
2015,02,18,15,06,11.70
2015,02,18,15,07,11.70
2015,02,18,15,08,11.70
2015,02,18,15,09,11.60
2015,02,18,15,10,11.70
2015,02,18,15,11,11.70
2015,02,18,15,12,11.70
2015,02,18,15,13,11.70
2015,02,18,15,14,11.70
2015,02,18,15,15,11.60
2015,02,18,15,16,11.60
2015,02,18,15,17,11.60
2015,02,18,15,18,11.60
2015,02,18,15,19,11.50
2015,02,18,15,20,11.50
2015,02,18,15,21,11.50
2015,02,18,15,22,11.40
2015,02,18,15,23,11.40
2015,02,18,15,24,11.40
2015,02,18,15,25,11.40
2015,02,18,15,26,11.30
2015,02,18,15,27,11.30
2015,02,18,15,28,11.30
2015,02,18,15,29,11.30
2015,02,18,15,30,11.30
2015,02,18,15,31,11.30
2015,02,18,15,32,11.30
2015,02,18,15,33,11.30
2015,02,18,15,34,11.30
2015,02,18,15,35,11.30
2015,02,18,15,36,11.30
2015,02,18,15,37,11.30
2015,02,18,15,38,11.30
2015,02,18,15,39,11.30
2015,02,18,15,40,11.30
2015,02,18,15,41,11.30
2015,02,18,15,42,11.30
2015,02,18,15,43,11.30
2015,02,18,15,44,11.30
2015,02,18,15,45,11.30
2015,02,18,15,46,11.30
2015,02,18,15,47,11.30
2015,02,18,15,48,11.30
2015,02,18,15,49,11.30
2015,02,18,15,50,11.30
2015,02,18,15,51,11.30
2015,02,18,15,52,11.30
2015,02,18,15,53,11.30
2015,02,18,15,54,11.30
2015,02,18,15,55,11.30
2015,02,18,15,56,11.30
2015,02,18,15,57,11.30
2015,02,18,15,58,11.30
2015,02,18,15,59,11.30
2015,02,18,16,00,11.30
2015,02,18,16,01,11.30
2015,02,18,16,02,11.30
2015,02,18,16,03,11.30
2015,02,18,16,04,11.30
2015,02,18,16,05,11.30
2015,02,18,16,06,11.30
2015,02,18,16,07,11.30
2015,02,18,16,08,11.30
2015,02,18,16,09,11.30
2015,02,18,16,10,11.30
2015,02,18,16,11,11.30
2015,02,18,16,12,11.30
2015,02,18,16,13,11.30
2015,02,18,16,14,11.30
2015,02,18,16,15,11.30
2015,02,18,16,16,11.30
2015,02,18,16,17,11.30
2015,02,18,16,18,11.30
2015,02,18,16,19,11.30
2015,02,18,16,20,11.30
2015,02,18,16,21,11.30
2015,02,18,16,22,11.30
2015,02,18,16,23,11.30
2015,02,18,16,24,11.30
2015,02,18,16,25,11.30
2015,02,18,16,26,11.30
2015,02,18,16,27,11.30
2015,02,18,16,28,11.30
2015,02,18,16,29,11.30
2015,02,18,16,30,11.30
2015,02,18,16,31,11.30
2015,02,18,16,32,11.30
2015,02,18,16,33,11.30
2015,02,18,16,34,11.20
2015,02,18,16,35,11.20
2015,02,18,16,36,11.20
2015,02,18,16,37,11.20
2015,02,18,16,38,11.20
2015,02,18,16,39,11.20
2015,02,18,16,40,11.20
2015,02,18,16,41,11.20
2015,02,18,16,42,11.20
2015,02,18,16,43,11.20
2015,02,18,16,44,11.20
2015,02,18,16,45,11.20
2015,02,18,16,46,11.20
2015,02,18,16,47,11.20
2015,02,18,16,48,11.20
2015,02,18,16,49,11.20
2015,02,18,16,50,11.20
2015,02,18,16,51,11.20
2015,02,18,16,52,11.20
2015,02,18,16,53,11.20
2015,02,18,16,54,11.10
2015,02,18,16,55,11.10
2015,02,18,16,56,11.10
2015,02,18,16,57,11.10
2015,02,18,16,58,11.10
2015,02,18,16,59,11.10
2015,02,18,17,00,11.10
2015,02,18,17,01,11.10
2015,02,18,17,02,11.10
2015,02,18,17,03,11.00
2015,02,18,17,04,11.00
2015,02,18,17,05,11.00
2015,02,18,17,06,11.00
2015,02,18,17,07,11.00
2015,02,18,17,08,11.00
2015,02,18,17,09,10.90
2015,02,18,17,10,10.90
2015,02,18,17,11,10.90
2015,02,18,17,12,10.90
2015,02,18,17,13,10.90
2015,02,18,17,14,10.90
2015,02,18,17,15,10.80
2015,02,18,17,16,10.80
2015,02,18,17,17,10.80
2015,02,18,17,18,10.80
2015,02,18,17,19,10.70
2015,02,18,17,20,10.70
2015,02,18,17,21,10.70
2015,02,18,17,22,10.70
2015,02,18,17,23,10.60
2015,02,18,17,24,10.60
2015,02,18,17,25,10.60
2015,02,18,17,26,10.60
2015,02,18,17,27,10.50
2015,02,18,17,28,10.50
2015,02,18,17,29,10.40
2015,02,18,17,30,10.40
2015,02,18,17,31,10.40
2015,02,18,17,32,10.40
2015,02,18,17,33,10.40
2015,02,18,17,34,10.40
2015,02,18,17,35,10.40
2015,02,18,17,36,10.30
2015,02,18,17,37,10.30
2015,02,18,17,38,10.30
2015,02,18,17,39,10.30
2015,02,18,17,40,10.30
2015,02,18,17,41,10.30
2015,02,18,17,42,10.30
2015,02,18,17,43,10.20
2015,02,18,17,44,10.20
2015,02,18,17,45,10.20
2015,02,18,17,46,10.20
2015,02,18,17,47,10.20